Regional Weather Roundup
Issued by NWS Newport/Morehead, NC

Current Version | Previous Version | Text Only | Print | Product List | Glossary Off
Versions: 1 2 3 4 5 6 7 8 9 10 11 12 13 14 15 16 17 18 19 20 21 22 23 24 25 26 27 28 29 30 31 32 33 34 35 36 37 38 39 40 41 42 43 44 45 46 47 48 49 50
000 ASUS42 KMHX 200922 RWRMHX WEATHER ROUNDUP FOR EASTERN NORTH CAROLINA NATIONAL WEATHER SERVICE NEWPORT/MOREHEAD CITY NC 400 AM EST SAT DEC 20 2014 NOTE: "FAIR" INDICATES FEW OR NO CLOUDS BELOW 12,000 FEET WITH NO SIGNIFICANT WEATHER AND/OR OBSTRUCTIONS TO VISIBILITY NCZ015>017-031-032-045>047-102-103-201000- NORTH COAST CITY SKY/WX TMP DP RH WIND PRES REMARKS EDENTON N/A 33 30 88 CALM 30.26F ELIZABETH CITY CLOUDY 36 29 75 W3 30.26R KITTY HAWK PTSUNNY 40 32 72 N5 30.22S MANTEO MOCLDY 40 32 74 N5 30.24S $$ NCZ045>047-081-094-103-104-201000- CENTRAL COAST CITY SKY/WX TMP DP RH WIND PRES REMARKS FRISCO MOCLDY 41 34 76 NE5 30.23S SWANQUARTER N/A 36 N/A N/A CALM 30.18F $$ NCZ095-097-098-100-101-201000- SOUTHERN COAST CITY SKY/WX TMP DP RH WIND PRES REMARKS BEAUFORT CLOUDY 42 36 79 CALM 30.23S CEDAR ISLAND N/A 45 N/A N/A NE12 30.27S JACKSONVILLE CLOUDY 42 34 73 E6 30.22S PINEY ISLAND CLOUDY 46 36 68 NE9 30.22F WILMINGTON CLOUDY 43 37 79 NE6 30.20S $$ NCZ011>013-027>030-043-044-078>080-089-090>093-098-201000- COASTAL PLAIN CITY SKY/WX TMP DP RH WIND PRES REMARKS AHOSKIE CLOUDY 31 27 83 CALM 30.27S CLINTON CLOUDY 40 34 77 CALM 30.23R ELIZABETHTOWN CLOUDY 41 33 72 CALM 30.22R GOLDSBORO CLOUDY 37 37 97 NE7 30.20F GREENVILLE CLOUDY 34 32 93 N3 30.26S HAVELOCK CLOUDY 41 36 82 NE3 30.23F KENANSVILLE CLOUDY 37 33 87 CALM 30.24R KINSTON CLOUDY 37 33 87 NE6 30.24S NEW BERN CLOUDY 41 34 76 NE5 30.24S RICHLANDS CLOUDY 37 30 75 NE6 30.22S ROCKY MOUNT CLOUDY 35 29 78 NE7 30.24F WASHINGTON CLOUDY 33 31 93 NE5 30.25F WHITEVILLE CLOUDY 44 34 69 NE3 30.19S $$ AMZ130-135-150-152-154-156-158-170-250-252-270-ANZ085-086-088-633-658-670-201000- MARINE OBSERVATIONS STATION/POSITION TIME TEMP WIND PRES WAVE SWELL AIR SEA DIR/SP/G HT/PER HT/PER (UTC) (F) (DEG/KT/KT) (MB) (FT/S) (FT/S) CHESAPEAKE LIGHT 0900 39 10/ 12/ 14 1024.5 64 E VA BEACH 0900 43 55 350/ 10/ 14 1022.8 3/ 6 2/ 6 DUCK 0900 42 46 360/ 9/ 11 1022.9 2 E DUCK 0900 47 N/A 3/ 6 10 NE DUCK 0900 52 N/A 3/ 6 OREGON INLET 0900 41 50 340/ 4/ 5 1023.6 13E OREGON INLT 0900 52 N/A 3/ 6 HATTERAS CG 0900 44 52 20/ 9/ 11 1023.7 DIAMOND BUOY 0900 46 1023.5 3/ 6 17 S OCRACOKE NOT AVBL CAPE LOOKOUT 0900 45 10/ 7/ 10 1023.4 BEAUFORT LAB 0900 43 52 40/ 3/ 5 1022.4 30 SE NEW RIVER 0900 52 61 50/ 10/ 12 1023.3 2/11 2/11 5 SE WRIGHTSVLE NOT AVBL 225 S CAPE HAT 0839 65 72 40/ 8/ 12 1020.6 2/10 2/10 41 SE CHARLESTON 0900 65 69 50/ 14/ 16 1019.5 2/11 2/11 $$

USA.gov is the U.S. government's official web portal to all federal, state and local government web resources and services.